EW4055 Weather Reports


time (UTC)temp
F
wind
direction
speed
knots
gust
knots
rain 1hr
in
rain 24hr
in
rain mn
in
humidity
%
barometer
mb
20260507082806 66 279 1.7 4.3 0.00 0.07 0.07 68 1014.1
20260507081804 67 274 2.6 4.3 0.00 0.07 0.07 73 1014.0
20260507080806 65 286 0.9 4.3 0.00 0.07 0.07 73 1013.9
20260507080325 64 281 0.9 5.2 0.00 0.07 0.07 81 1013.8
20260507075924 65 268 1.7 3.5 0.00 0.07 0.07 77 1013.9
20260507073805 63 295 0.9 2.6 0.00 0.07 0.07 85 1013.9
20260507072807 62 155 0.0 3.5 0.00 0.07 0.07 85 1013.8
20260507071804 62 141 0.9 2.6 0.00 0.07 0.07 86 1014.0
20260507070805 61 151 1.7 3.5 0.00 0.07 0.07 88 1013.9
20260507070305 60 71 0.0 1.7 0.00 0.07 0.07 90 1013.9
20260507065919 60 134 0.9 2.6 0.00 0.07 0.07 88 1013.9
20260507063806 60 71 0.9 2.6 0.00 0.07 0.07 91 1013.8
20260507063428 60 178 0.0 2.6 0.00 0.07 0.07 91 1013.8
20260507061804 60 96 0.9 3.5 0.00 0.08 0.07 92 1013.8
20260507060802 59 73 1.7 2.6 0.00 0.09 0.07 92 1013.9
20260507055804 59 343 0.0 2.6 0.00 0.09 0.07 92 1013.7
20260507054803 58 87 0.0 2.6 0.00 0.09 0.07 92 1013.6
20260507053802 58 87 0.9 2.6 0.00 0.09 0.07 92 1013.6
20260507052803 58 87 0.0 2.6 0.00 0.09 0.07 91 1013.6
20260507051810 57 87 1.7 2.6 0.00 0.09 0.07 92 1013.5
20260507050806 57 87 1.7 2.6 0.00 0.09 0.07 92 1013.4
20260507045806 57 87 0.9 1.7 0.01 0.08 0.07 92 1013.2
20260507045449 57 87 0.9 2.6 0.01 0.08 0.07 92 1013.0
20260507043804 57 87 1.7 2.6 0.01 0.08 0.07 92 1012.9
20260507043216 57 1 1.7 3.5 0.01 0.08 0.07 91 1012.7
20260507042917 57 357 0.9 3.5 0.01 0.08 0.07 92 1012.7
20260507040803 57 227 0.0 3.5 0.02 0.08 0.07 91 1012.7
20260507035806 57 231 0.9 3.5 0.02 0.07 0.06 91 1012.4
20260507034806 57 243 0.0 3.5 0.03 0.07 0.06 91 1012.4
20260507033802 57 278 1.7 2.6 0.04 0.07 0.06 90 1012.5
20260507032805 57 278 0.0 1.7 0.06 0.07 0.06 90 1012.5
20260507031806 57 278 0.9 3.5 0.06 0.07 0.06 90 1012.5
20260507030802 58 288 1.7 1.7 0.06 0.07 0.06 89 1012.5
20260507025801 58 247 0.9 2.6 0.05 0.02 0.05 88 1012.6
20260507024800 58 241 1.7 3.5 0.03 0.02 0.03 87 1012.5
20260507023806 59 220 1.7 3.5 0.02 0.02 0.02 86 1012.4
20260507022759 60 269 2.6 4.3 0.01 0.02 0.01 83 1012.4
20260507021756 60 302 3.5 7.8 0.01 0.02 0.00 81 1012.3
20260507020756 60 278 3.5 6.1 0.00 0.02 0.00 80 1012.1
20260507015755 61 279 3.5 5.2 0.00 0.02 0.00 79 1012.0
20260507014754 61 271 1.7 2.6 0.00 0.02 0.00 78 1011.9
20260507013753 61 261 1.7 2.6 0.00 0.02 0.00 77 1012.0
20260507012755 61 264 1.7 3.5 0.00 0.02 0.00 77 1011.9
20260507011752 61 247 1.7 3.5 0.00 0.02 0.00 77 1011.9
20260507010958 62 283 1.7 3.5 0.00 0.02 0.00 74 1011.9
20260507010942 62 290 4.3 7.8 0.00 0.02 0.00 75 1011.8
20260507010825 61 282 2.6 9.6 0.00 0.02 0.00 76 1011.9
20260507003751 62 295 1.7 2.6 0.00 0.02 0.00 73 1012.1
20260507002754 62 313 0.0 1.7 0.00 0.02 0.00 73 1012.2
20260507002436 62 313 0.9 3.5 0.00 0.02 0.00 74 1012.2
20260507000748 62 17 0.0 2.6 0.00 0.02 0.00 74 1012.2
20260506235747 61 0 1.7 4.3 0.00 0.02 0.00 75 1012.2
20260506234751 61 42 1.7 3.5 0.00 0.02 0.00 75 1012.3
20260506233751 62 35 2.6 3.5 0.00 0.02 0.00 75 1012.3
20260506232749 62 86 2.6 5.2 0.00 0.02 0.00 74 1012.4
20260506231749 62 288 0.0 1.7 0.00 0.02 0.00 71 1012.4
20260506230748 63 288 0.0 5.2 0.00 0.02 0.00 71 1012.3
20260506225747 63 302 1.7 3.5 0.00 0.02 0.00 71 1012.3
20260506224747 63 310 1.7 3.5 0.00 0.02 0.00 70 1012.3
20260506223747 63 314 2.6 3.5 0.00 0.02 0.00 70 1012.5
20260506222748 63 337 2.6 4.3 0.00 0.02 0.00 71 1012.5
20260506221750 63 0 1.7 4.3 0.00 0.02 0.00 71 1012.5
20260506220748 63 298 1.7 3.5 0.00 0.02 0.00 71 1012.4
20260506215747 63 288 0.0 4.3 0.00 0.02 0.02 70 1012.5
20260506214745 63 274 0.9 3.5 0.00 0.02 0.02 69 1012.5
20260506213749 63 329 1.7 7.8 0.00 0.02 0.02 69 1012.4
20260506212745 63 78 3.5 5.2 0.00 0.02 0.02 71 1012.4
20260506211744 63 18 0.0 4.3 0.00 0.02 0.02 71 1012.5
20260506210828 62 63 2.6 3.5 0.00 0.02 0.02 71 1012.5
20260506210757 63 21 0.9 2.6 0.00 0.02 0.02 71 1012.5
20260506205427 63 285 2.6 4.3 0.00 0.02 0.02 75 1012.5
20260506205327 63 254 0.0 3.5 0.00 0.02 0.02 76 1012.5
20260506205307 63 224 0.0 2.6 0.00 0.02 0.02 76 1012.6
20260506204829 63 300 0.0 1.7 0.00 0.02 0.02 71 1012.4
20260506204003 63 193 0.0 3.5 0.00 0.02 0.02 72 1012.6
20260506195746 63 157 1.7 3.5 0.00 0.02 0.02 77 1012.6
20260506194744 63 319 2.6 3.5 0.00 0.02 0.02 78 1012.4
20260506193744 63 41 0.9 2.6 0.00 0.02 0.02 80 1012.4
20260506192945 63 241 0.0 1.7 0.00 0.02 0.02 80 1012.1
20260506192804 63 261 0.0 2.6 0.00 0.02 0.02 80 1012.2
20260506191058 64 266 1.7 2.6 0.00 0.02 0.02 80 1011.8
20260506190822 63 248 0.0 2.6 0.00 0.02 0.02 79 1012.0
20260506184747 64 228 1.7 1.7 0.00 0.02 0.02 80 1011.9
20260506183743 65 80 0.0 0.0 0.00 0.02 0.02 78 1011.7
20260506182741 65 80 0.0 0.0 0.00 0.02 0.02 78 1011.7
20260506181744 65 80 0.9 3.5 0.00 0.02 0.02 79 1011.7
20260506180739 65 32 0.0 2.6 0.00 0.02 0.02 77 1011.7
20260506175740 65 75 1.7 2.6 0.00 0.02 0.02 77 1011.5
20260506174738 65 75 2.6 3.5 0.00 0.02 0.02 79 1011.5
20260506173741 66 47 0.9 2.6 0.00 0.02 0.02 81 1011.5
20260506172741 66 47 0.9 2.6 0.00 0.02 0.02 81 1011.3
20260506171741 66 4 0.0 4.3 0.00 0.02 0.02 80 1011.3
20260506170740 67 62 1.7 4.3 0.00 0.02 0.02 78 1011.1
20260506165742 67 69 2.6 4.3 0.00 0.02 0.02 78 1011.2
20260506164743 67 86 0.0 2.6 0.00 0.02 0.02 78 1011.2
20260506163739 68 86 0.0 2.6 0.00 0.02 0.02 78 1011.3
20260506162738 68 86 1.7 2.6 0.00 0.02 0.02 76 1011.2
20260506161739 68 86 1.7 3.5 0.00 0.02 0.02 75 1011.2
20260506160738 69 93 1.7 3.5 0.00 0.02 0.02 71 1011.3
20260506155742 69 131 0.0 1.7 0.00 0.02 0.02 66 1011.2
20260506154739 70 155 0.9 2.6 0.00 0.02 0.02 61 1011.1
20260506153735 70 235 0.9 2.6 0.00 0.02 0.02 58 1011.1
20260506152739 70 251 1.7 8.7 0.00 0.02 0.02 57 1011.0
20260506152255 71 182 1.7 4.3 0.00 0.02 0.02 56 1010.9
20260506151901 71 269 1.7 6.1 0.00 0.02 0.02 56 1010.8
20260506145734 72 310 1.7 5.2 0.00 0.02 0.02 55 1010.8
20260506144736 72 168 1.7 6.1 0.00 0.02 0.02 55 1010.7
20260506143734 72 196 2.6 8.7 0.00 0.02 0.02 54 1010.6
20260506142735 73 243 2.6 7.8 0.00 0.02 0.02 56 1010.6
20260506142358 72 210 2.6 5.2 0.00 0.02 0.02 55 1010.5
20260506141220 73 262 1.7 4.3 0.00 0.02 0.02 55 1010.7
20260506140857 73 0 1.7 5.2 0.00 0.02 0.02 54 1010.7
20260506134741 74 357 2.6 6.1 0.00 0.02 0.02 52 1010.9
20260506133735 76 175 1.7 4.3 0.00 0.02 0.02 50 1011.0
20260506132734 77 343 0.9 6.1 0.00 0.02 0.02 48 1011.0
20260506131736 77 250 2.6 11.3 0.00 0.02 0.02 49 1011.1
20260506130735 78 243 2.6 7.8 0.00 0.02 0.02 50 1011.0
20260506130244 76 165 2.6 6.1 0.00 0.02 0.02 52 1011.3
20260506125844 77 220 3.5 10.4 0.00 0.02 0.02 51 1011.3
20260506123735 76 165 1.7 4.3 0.00 0.02 0.02 53 1011.3
20260506122733 76 279 0.9 5.2 0.00 0.02 0.02 52 1011.4
20260506121731 76 234 2.6 6.1 0.00 0.02 0.02 55 1011.3
20260506120732 75 221 0.9 11.3 0.00 0.02 0.02 55 1011.3
20260506115732 74 288 2.6 6.1 0.00 0.02 0.02 56 1011.2
20260506114733 74 200 1.7 4.3 0.00 0.02 0.02 60 1011.3
20260506113732 73 188 1.7 10.4 0.00 0.02 0.02 66 1011.3
20260506112733 71 100 3.5 8.7 0.00 0.02 0.02 71 1011.4
20260506111730 70 103 2.6 8.7 0.00 0.02 0.02 72 1011.7
20260506110733 69 162 1.7 7.8 0.00 0.02 0.02 73 1011.5
20260506105729 69 78 3.5 7.8 0.00 0.02 0.02 71 1011.7
20260506105423 68 97 1.7 9.6 0.00 0.02 0.02 75 1011.9
20260506103731 68 82 2.6 6.1 0.00 0.02 0.02 73 1012.0
20260506102731 70 71 2.6 6.1 0.00 0.02 0.02 70 1012.0
20260506101729 71 90 2.6 5.2 0.00 0.02 0.02 64 1012.1
20260506100727 71 58 5.2 7.8 0.00 0.02 0.02 63 1012.0
20260506095731 71 159 2.6 6.1 0.00 0.02 0.02 65 1012.1
20260506094731 69 121 1.7 7.8 0.00 0.02 0.02 70 1012.2
20260506093728 70 93 6.1 9.6 0.00 0.02 0.02 68 1012.0
20260506093621 71 110 5.2 11.3 0.00 0.02 0.02 62 1012.1
20260506091729 71 164 5.2 9.6 0.00 0.02 0.02 66 1012.1
20260506090733 69 118 2.6 6.1 0.00 0.02 0.02 70 1012.1
20260506085728 68 68 3.5 8.7 0.00 0.02 0.02 68 1012.2
20260506084729 68 82 4.3 7.8 0.00 0.02 0.02 67 1012.1
20260506083730 68 97 2.6 6.1 0.00 0.02 0.02 67 1012.1